Vertical_Velocity
-0 -0 1 0 1 2 -0 2 -1 -3 -2 -2 0 0 -2 -7 -1 -1 -1 -1 -1 1 1 -0 1 7 4 4 -16 11 -3 1 1 -0 1 -4 7 -0 -2 -2 1 1 -1 2 -2 -0 -1
0 -1 -1 0 2 -0 1 1 -1 -2 -1 -5 -2 -1 -2 -5 -2 -2 3 2 -1 1 1 2 -0 9 3 7 -8 -11 -2 3 3 4 2 3 -1 -4 0 -2 -1 -3 -2 -4 1 -5 0
2 2 -3 -0 1 -1 2 -1 -0 -1 -1 -5 -5 3 -1 -2 -6 0 0 1 -1 -1 -1 1 9 3 3 -27 -4 -1 -0 -3 3 -9 -1 -1 2 10 1 2 -3 -1 0 -0 -0 -2 -3
-1 2 2 -1 2 -1 0 -1 1 -1 1 -1 -4 0 -2 -2 1 1 -0 1 1 3 1 1 13 6 -7 -7 -9 -2 -1 -0 -1 2 -10 10 16 19 2 5 2 1 1 4 -3 0 -3
-1 1 1 1 3 -0 1 -2 4 -2 3 1 -4 3 0 1 -2 1 4 1 2 3 4 2 -2 2 -7 8 -6 4 4 -4 1 -2 1 6 14 -0 10 -1 2 2 -1 1 -5 -0 -0
-3 -3 2 1 2 0 -0 -2 4 -1 1 2 -2 -1 -1 -5 -3 -1 5 13 0 4 6 2 4 2 -2 -12 -3 -1 2 4 1 8 11 7 3 1 4 2 -4 -1 2 1 -1 -0 1
1 -2 1 -1 -2 2 1 -2 3 -1 0 1 -1 -2 2 -1 -1 -2 5 53 4 8 4 -15 -6 -4 2 4 6 1 2 5 5 18 0 -1 8 -2 -7 -4 -2 -2 -1 -1 -1 -1 1
-1 -3 1 -0 -1 0 0 1 1 2 -3 1 1 -5 3 4 -4 2 15 1 -17 -6 -3 -12 3 5 3 7 4 4 6 -2 2 1 3 12 -3 -6 -1 0 -2 0 -1 -1 -2 -0 1
6 -2 1 -1 0 -0 -1 -0 1 3 -2 1 2 -3 0 4 2 4 1 -3 18 3 -2 1 -7 -3 -8 6 -3 -3 8 -3 -2 2 -0 -6 -6 1 -1 2 2 0 -2 0 -2 -1 -0
4 0 0 2 2 -0 1 -0 0 3 -1 -0 3 -1 -1 7 -1 7 3 6 1 -10 0 -4 5 -18 -2 2 -2 -8 -4 -18 7 -7 -2 -3 -7 -3 2 -1 -3 3 -1 -1 -0 -2 -2
-1 4 2 7 3 -2 -2 -1 1 1 -0 -1 3 -1 -0 1 3 -3 -2 15 2 -10 6 6 8 -1 4 -8 -3 -4 -5 21 -2 -1 5 -9 1 4 3 -11 -2 -5 -1 -1 -0 0 -1
-0 -2 0 6 3 -2 2 -1 -0 4 -1 -0 3 2 3 1 -3 -5 15 22 0 8 -2 3 -1 1 5 3 -0 10 0 20 6 -1 6 -1 1 -3 -7 -0 -2 -1 -4 -2 -1 -0 1
1 -3 -2 1 1 3 1 1 1 4 0 1 2 3 4 5 2 4 13 -4 4 4 3 4 1 1 -1 1 2 1 2 8 -2 1 7 2 2 1 -5 -2 0 -0 -2 -1 -1 4 -5
-1 -0 2 4 3 2 -1 3 6 1 2 0 1 4 0 -0 8 8 -5 2 7 -3 -2 -0 -1 3 -3 -3 -0 3 4 2 1 1 -0 -2 10 -1 4 -5 -8 -1 -6 -5 -3 -2 -2
1 2 1 4 1 3 1 2 4 -1 1 5 3 0 -2 -1 8 11 -2 3 -4 -2 -5 -1 5 1 1 3 -5 -0 -1 -2 -4 -2 -10 0 1 0 0 -0 -15 -3 -0 -3 -2 -0 -1
-1 4 6 -2 2 0 0 -0 7 -3 2 3 2 2 -2 2 25 8 -2 -2 -1 -1 0 3 -3 -3 -1 0 -0 1 -0 -6 -1 -0 -1 -2 -3 -1 3 -4 0 -11 -5 -2 -2 -0 -0
-2 5 6 -1 2 1 1 -2 4 -2 4 2 0 3 4 13 11 1 -1 -4 -0 1 -13 -3 -1 -0 -3 -3 0 -0 -5 3 1 -2 0 -2 -9 0 -2 -0 -5 3 0 -0 -3 -2 -3
3 7 7 -2 1 0 1 1 -1 0 1 1 1 2 4 8 2 -0 -0 -2 -1 1 7 -0 -4 -1 -4 -0 -0 1 -6 -2 -2 -5 -1 -5 -4 -1 -2 0 -1 -3 -3 -3 -4 -1 0
2 2 9 1 3 -0 1 2 -0 1 2 0 1 0 13 5 -0 -0 0 -1 -0 2 -1 1 0 -2 -0 -3 -0 -1 0 -4 -1 1 -5 -5 -2 -1 6 -1 -3 -0 1 -1 -1 -2 -2
1 3 3 3 2 -0 1 2 -0 0 3 1 1 2 8 9 1 2 -0 -0 1 1 -1 -0 -2 -2 1 3 0 -1 1 1 1 -1 2 -3 -0 -6 -10 -7 -6 1 1 0 -4 -0 -3
2 10 3 1 2 1 0 3 0 0 5 1 1 -5 -5 -0 -0 1 1 -0 0 0 0 0 3 -2 -4 -1 0 1 1 2 1 3 -0 -2 -2 -1 -0 -0 -0 -3 -2 0 -0 -5 -3
5 1 12 5 2 -1 1 1 1 2 6 2 -0 -1 3 -0 1 2 1 -1 -2 1 1 1 1 -1 -0 -3 -7 -4 -5 -1 -7 1 -0 -1 -1 -1 1 0 -0 0 0 0 -0 1 1
-2 9 7 4 1 1 1 0 -0 3 1 1 3 1 3 -1 0 0 -4 -2 -3 -1 1 1 -5 -3 0 -1 -1 -2 0 -4 -4 -5 -0 0 -2 -1 -0 -0 0 -2 -7 -1 -2 0 -7
-5 9 1 9 -3 5 -0 -1 0 3 1 0 0 2 2 -1 0 -2 -0 -2 -1 -2 -5 0 -1 -5 2 4 4 -5 -8 -3 -0 1 -1 -1 -1 1 -0 -1 -4 -13 -0 -3 -4 -1 0
-7 9 1 10 -1 3 1 -2 1 2 5 1 0 0 2 -1 -1 1 1 -1 1 1 -1 -1 2 3 0 -3 -4 -3 -3 -1 0 1 -0 -2 -1 -1 -4 -1 -6 0 -1 -4 -6 -5 -2
-5 0 2 15 -5 -1 2 -2 2 -1 6 2 1 2 3 -0 -5 -1 -1 -1 -1 0 -0 -0 4 3 -7 -1 -2 -1 -1 -3 3 2 0 -0 -2 -6 0 -2 -4 -3 -0 -1 -2 -7 -1
-6 7 5 30 -5 1 -1 -1 0 1 5 2 1 1 1 1 1 -1 -2 -5 -0 -1 -2 1 -0 -4 -3 -0 -1 -1 1 -2 -2 -2 0 -1 -2 -4 0 -1 -6 -2 -1 1 -9 -11 1
-9 -5 5 23 -2 2 -0 -1 -1 1 4 2 -0 1 1 1 0 2 -0 -1 0 0 -4 1 -2 1 -1 -2 -2 -1 -1 -1 -2 -2 -3 -5 -5 -1 -1 -1 -8 -1 1 -7 -5 4 -2
-9 -3 6 23 -2 -2 -0 0 -1 -0 4 3 1 1 2 2 0 3 1 -0 1 1 -8 1 -3 -1 -3 -3 1 -1 -1 0 -2 -2 -0 -3 -6 -7 -8 -8 -0 0 0 2 -2 -8 1
Height
1496 1494 1491 1488 1486 1483 1482 1480 1479 1479 1478 1479 1479 1478 1478 1479 1479 1479 1480 1480 1481 1483 1484 1486 1489 1492 1493 1495 1488 1491 1491 1493 1492 1499 1501 1506 1510 1512 1512 1515 1519 1519 1518 1517 1517 1518 1517
1492 1490 1487 1485 1483 1481 1479 1477 1476 1475 1476 1477 1477 1476 1476 1476 1476 1477 1477 1477 1479 1480 1482 1484 1487 1488 1490 1489 1489 1492 1493 1493 1494 1496 1498 1501 1505 1508 1509 1511 1513 1512 1514 1514 1514 1514 1514
1489 1487 1484 1482 1479 1477 1476 1474 1473 1472 1472 1473 1474 1473 1473 1473 1474 1474 1474 1475 1476 1476 1479 1481 1484 1485 1486 1481 1485 1486 1488 1489 1494 1495 1495 1497 1503 1506 1504 1508 1508 1511 1514 1513 1511 1510 1510
1485 1484 1481 1479 1476 1474 1472 1471 1470 1469 1469 1469 1470 1470 1470 1470 1470 1470 1471 1471 1472 1473 1475 1478 1480 1482 1479 1478 1482 1483 1485 1486 1489 1492 1494 1496 1502 1503 1501 1502 1504 1509 1513 1516 1507 1507 1505
1480 1480 1478 1475 1473 1470 1468 1468 1466 1465 1465 1465 1465 1466 1466 1466 1466 1467 1466 1467 1469 1471 1474 1476 1479 1480 1476 1474 1474 1477 1481 1484 1485 1488 1491 1494 1498 1495 1497 1499 1506 1507 1513 1513 1510 1501 1504
1475 1475 1474 1472 1470 1467 1465 1464 1463 1461 1461 1461 1460 1462 1462 1461 1460 1461 1463 1463 1465 1469 1471 1473 1476 1481 1474 1471 1470 1471 1475 1481 1483 1484 1488 1492 1494 1489 1492 1494 1502 1506 1506 1508 1507 1502 1503
1470 1470 1469 1468 1466 1464 1462 1460 1458 1457 1456 1457 1456 1457 1456 1455 1455 1456 1459 1458 1464 1465 1464 1461 1464 1465 1465 1465 1468 1468 1470 1476 1481 1479 1481 1484 1482 1476 1484 1489 1491 1497 1497 1500 1501 1500 1502
1466 1465 1465 1463 1462 1460 1458 1456 1454 1452 1452 1452 1451 1452 1451 1450 1450 1451 1452 1446 1450 1454 1459 1458 1460 1462 1463 1463 1465 1464 1468 1473 1478 1469 1478 1482 1475 1477 1482 1488 1490 1495 1498 1502 1501 1500 1501
1462 1460 1460 1459 1458 1456 1454 1453 1451 1448 1447 1448 1447 1447 1446 1445 1445 1445 1444 1444 1447 1450 1455 1452 1453 1457 1459 1462 1461 1460 1465 1467 1471 1469 1472 1470 1468 1473 1478 1487 1489 1494 1497 1501 1501 1501 1499
1458 1456 1456 1454 1453 1452 1450 1449 1447 1444 1443 1443 1442 1443 1442 1441 1443 1438 1439 1440 1444 1447 1455 1448 1448 1450 1454 1457 1457 1457 1460 1464 1467 1466 1472 1474 1466 1469 1477 1483 1486 1494 1492 1492 1498 1503 1506
1451 1451 1451 1449 1448 1447 1446 1445 1442 1440 1439 1438 1438 1439 1439 1437 1436 1436 1437 1438 1442 1452 1441 1440 1442 1443 1443 1450 1449 1451 1456 1463 1460 1462 1466 1465 1464 1466 1474 1475 1483 1491 1490 1494 1498 1503 1508
1445 1445 1445 1444 1443 1442 1440 1440 1438 1436 1435 1433 1433 1434 1434 1434 1433 1432 1433 1434 1443 1448 1434 1435 1435 1438 1442 1446 1446 1448 1454 1460 1458 1460 1464 1461 1461 1463 1467 1476 1480 1487 1493 1501 1503 1507 1510
1438 1438 1439 1438 1438 1436 1435 1434 1433 1431 1430 1429 1428 1428 1428 1429 1429 1427 1429 1435 1441 1432 1432 1431 1430 1434 1436 1444 1447 1446 1450 1454 1454 1463 1465 1460 1458 1461 1466 1476 1481 1483 1492 1511 1520 1517 1503
1432 1432 1433 1432 1431 1430 1430 1429 1428 1427 1426 1424 1423 1422 1422 1423 1427 1424 1429 1434 1427 1416 1426 1423 1427 1434 1435 1439 1439 1444 1447 1456 1454 1451 1457 1460 1461 1461 1464 1468 1476 1483 1486 1498 1500 1505 1499
1425 1426 1426 1427 1426 1424 1424 1423 1422 1422 1421 1419 1417 1415 1414 1413 1419 1421 1426 1426 1413 1411 1419 1417 1426 1433 1435 1434 1435 1441 1446 1447 1450 1447 1448 1459 1461 1458 1459 1462 1467 1490 1489 1485 1499 1505 1502
1418 1419 1419 1421 1420 1418 1418 1418 1417 1417 1416 1414 1411 1410 1407 1407 1412 1419 1427 1417 1412 1412 1413 1414 1418 1424 1431 1429 1436 1432 1443 1441 1444 1442 1439 1448 1461 1458 1461 1462 1468 1471 1476 1495 1495 1495 1498
1412 1412 1412 1414 1414 1412 1412 1412 1412 1412 1411 1410 1408 1407 1405 1405 1411 1418 1416 1414 1408 1406 1407 1407 1410 1418 1418 1425 1433 1433 1437 1432 1436 1438 1441 1443 1450 1464 1460 1461 1468 1475 1482 1486 1486 1490 1488
1403 1405 1406 1408 1408 1407 1407 1407 1407 1407 1407 1406 1406 1405 1402 1402 1411 1412 1408 1404 1402 1401 1401 1402 1405 1407 1412 1421 1432 1427 1429 1426 1429 1432 1439 1437 1449 1463 1460 1458 1458 1462 1469 1474 1479 1491 1497
1394 1397 1399 1401 1402 1401 1402 1402 1402 1403 1404 1404 1403 1403 1405 1404 1403 1403 1400 1395 1396 1397 1397 1397 1399 1400 1406 1414 1423 1420 1422 1422 1424 1428 1431 1432 1448 1462 1461 1462 1463 1462 1466 1469 1475 1480 1490
1386 1389 1392 1394 1397 1396 1396 1397 1397 1399 1399 1401 1402 1399 1405 1405 1397 1394 1390 1390 1392 1393 1394 1393 1395 1398 1404 1411 1410 1418 1419 1419 1421 1423 1424 1427 1440 1445 1449 1445 1453 1462 1463 1466 1463 1478 1482
1380 1383 1386 1388 1391 1391 1391 1392 1392 1394 1395 1398 1396 1392 1390 1393 1392 1390 1389 1388 1389 1391 1393 1393 1394 1393 1395 1407 1411 1414 1417 1418 1421 1422 1427 1428 1437 1440 1444 1440 1443 1448 1453 1460 1460 1457 1461
1372 1376 1380 1382 1385 1385 1386 1387 1388 1390 1391 1392 1391 1388 1386 1384 1382 1385 1386 1385 1388 1389 1391 1388 1389 1392 1394 1397 1401 1408 1406 1411 1416 1422 1424 1429 1439 1440 1446 1446 1444 1447 1449 1450 1452 1457 1458
1368 1369 1373 1376 1378 1380 1380 1381 1383 1385 1387 1386 1386 1385 1384 1381 1381 1382 1382 1382 1384 1387 1387 1387 1384 1390 1395 1397 1396 1398 1398 1403 1408 1419 1427 1431 1436 1443 1447 1446 1446 1449 1444 1448 1445 1449 1443
1363 1361 1365 1368 1372 1374 1374 1376 1378 1380 1382 1383 1383 1384 1382 1378 1379 1376 1375 1379 1383 1383 1385 1387 1386 1388 1398 1396 1398 1402 1404 1408 1410 1420 1422 1431 1440 1450 1453 1448 1458 1431 1432 1432 1436 1439 1441
1356 1354 1358 1362 1366 1367 1368 1370 1373 1375 1377 1378 1380 1382 1380 1377 1374 1375 1374 1378 1383 1384 1386 1390 1390 1391 1394 1396 1400 1408 1414 1417 1425 1427 1424 1427 1436 1446 1449 1452 1440 1433 1433 1435 1433 1437 1437
1349 1348 1352 1356 1360 1362 1363 1365 1368 1371 1373 1374 1376 1378 1379 1377 1372 1371 1374 1376 1381 1385 1389 1393 1394 1395 1396 1398 1405 1414 1418 1418 1424 1427 1427 1428 1427 1430 1458 1448 1438 1424 1425 1425 1426 1436 1432
1343 1342 1346 1349 1355 1357 1358 1361 1363 1367 1369 1371 1373 1374 1376 1374 1371 1372 1372 1374 1376 1382 1389 1395 1396 1398 1400 1404 1409 1414 1415 1415 1418 1422 1428 1431 1435 1438 1440 1439 1432 1422 1423 1425 1437 1430 1429
1337 1337 1339 1343 1349 1352 1353 1356 1359 1363 1365 1367 1370 1371 1373 1372 1371 1371 1371 1372 1374 1377 1384 1390 1396 1400 1404 1406 1408 1412 1412 1417 1418 1419 1422 1423 1432 1436 1443 1441 1434 1420 1424 1427 1426 1429 1432
1333 1333 1333 1337 1344 1346 1348 1351 1355 1359 1362 1364 1367 1369 1370 1372 1373 1372 1372 1373 1374 1374 1377 1383 1386 1388 1391 1403 1410 1413 1415 1419 1416 1416 1420 1420 1417 1421 1425 1423 1420 1420 1421 1421 1424 1427 1434